User: anonymous   Login
Location: Unspecified
(0.0000°N, 0.0000°E)
Time: 19:12:09
(UTC+00:00)
Language:

STARLINK-1656 - Orbit

View from above orbital plane
View from above orbital plane
View from above satellite
View from above satellite

Ground track
Ground track

The orbit is defined by the following mean orbital elements,

1 46353U          26145.55851977 +.00000000 +00000-0 +75761-3 0 00008
2 46353  53.0427 345.2414 0005139 132.6179 227.5270 15.66333272    07
Epoch (UTC): 25 May 2026 13:24:16
Eccentricity: 0.0005139
inclination: 53.0427°
perigee height: 366 km
apogee height: 373 km
right ascension of ascending node: 345.2414°
argument of perigee: 132.6179°
revolutions per day: 15.66333272
mean anomaly at epoch: 227.5270°

The dashed part of the orbit path shows where the satellite is in the earth's shadow,  

DLR